| time (UTC) | temp C | wind direction | speed KPH | gust KPH | rain 1hr cm | rain 24hr cm | rain mn cm | humidity % | barometer mb |
| 20260505063518 | 11 | 0.0 | 0.0 | 0.00 | 0.13 | 0.00 | 64 | 1008.7 | |
| 20260505062518 | 11 | 0.0 | 3.2 | 0.00 | 0.13 | 0.00 | 64 | 1008.7 | |
| 20260505061518 | 11 | 68 | 1.6 | 4.8 | 0.00 | 0.13 | 0.00 | 64 | 1008.3 |
| 20260505060538 | 11 | 0.0 | 0.0 | 0.00 | 0.13 | 0.00 | 63 | 1008.3 | |
| 20260505055519 | 11 | 0.0 | 0.0 | 0.00 | 0.13 | 0.13 | 63 | 1008.2 | |
| 20260505054519 | 11 | 0.0 | 4.8 | 0.00 | 0.13 | 0.13 | 62 | 1008.2 | |
| 20260505053520 | 11 | 0.0 | 0.0 | 0.00 | 0.13 | 0.13 | 60 | 1008.0 | |
| 20260505052600 | 11 | 0.0 | 0.0 | 0.00 | 0.13 | 0.13 | 59 | 1007.8 | |
| 20260505051518 | 11 | 0.0 | 0.0 | 0.00 | 0.13 | 0.13 | 58 | 1007.4 | |
| 20260505050519 | 12 | 0.0 | 0.0 | 0.00 | 0.13 | 0.13 | 57 | 1007.4 | |
| 20260505041518 | 12 | 0.0 | 0.0 | 0.00 | 0.13 | 0.13 | 54 | 1006.4 | |
| 20260505040519 | 13 | 0.0 | 0.0 | 0.00 | 0.13 | 0.13 | 53 | 1006.3 | |
| 20260505035519 | 13 | 0.0 | 3.2 | 0.00 | 0.13 | 0.13 | 52 | 1006.1 | |
| 20260505034518 | 13 | 68 | 1.6 | 4.8 | 0.00 | 0.13 | 0.13 | 52 | 1005.6 |
| 20260505033539 | 13 | 0.0 | 0.0 | 0.00 | 0.13 | 0.13 | 51 | 1005.3 | |
| 20260505032518 | 14 | 0.0 | 0.0 | 0.00 | 0.13 | 0.13 | 50 | 1005.5 | |
| 20260505031538 | 15 | 0.0 | 0.0 | 0.00 | 0.13 | 0.13 | 48 | 1005.4 | |
| 20260505030518 | 15 | 0.0 | 0.0 | 0.00 | 0.13 | 0.13 | 46 | 1005.2 | |
| 20260505025518 | 16 | 68 | 3.2 | 4.8 | 0.00 | 0.13 | 0.13 | 45 | 1005.3 |
| 20260505024519 | 17 | 0.0 | 0.0 | 0.00 | 0.13 | 0.13 | 44 | 1005.2 | |
| 20260505023539 | 17 | 0.0 | 0.0 | 0.00 | 0.13 | 0.13 | 42 | 1005.1 | |
| 20260505022519 | 17 | 0.0 | 0.0 | 0.00 | 0.13 | 0.13 | 41 | 1005.1 | |
| 20260505021519 | 18 | 0.0 | 0.0 | 0.00 | 0.13 | 0.13 | 40 | 1004.8 | |
| 20260505020519 | 18 | 0.0 | 0.0 | 0.00 | 0.13 | 0.13 | 39 | 1004.6 | |
| 20260505015518 | 18 | 0.0 | 0.0 | 0.00 | 0.13 | 0.13 | 38 | 1004.6 | |
| 20260505014518 | 18 | 0.0 | 3.2 | 0.00 | 0.13 | 0.13 | 39 | 1004.6 | |
| 20260505013518 | 19 | 0.0 | 0.0 | 0.00 | 0.13 | 0.13 | 40 | 1004.7 | |
| 20260505012518 | 19 | 0.0 | 0.0 | 0.00 | 0.13 | 0.13 | 38 | 1004.8 | |
| 20260505011518 | 19 | 0.0 | 0.0 | 0.00 | 0.13 | 0.13 | 39 | 1004.8 | |
| 20260505010519 | 18 | 0.0 | 0.0 | 0.00 | 0.13 | 0.13 | 39 | 1004.5 | |
| 20260505005518 | 18 | 68 | 3.2 | 8.0 | 0.00 | 0.13 | 0.13 | 34 | 1004.3 |
| 20260505004518 | 18 | 68 | 4.8 | 12.9 | 0.00 | 0.13 | 0.13 | 34 | 1004.3 |
| 20260505003519 | 18 | 90 | 4.8 | 9.7 | 0.00 | 0.13 | 0.13 | 35 | 1004.4 |
| 20260505002518 | 19 | 45 | 9.7 | 20.9 | 0.00 | 0.13 | 0.13 | 34 | 1004.9 |
| 20260505001518 | 20 | 68 | 8.0 | 17.7 | 0.00 | 0.13 | 0.13 | 33 | 1004.9 |
| 20260505000518 | 20 | 68 | 11.3 | 24.1 | 0.00 | 0.13 | 0.13 | 32 | 1005.4 |
| 20260504235518 | 20 | 68 | 6.4 | 12.9 | 0.00 | 0.13 | 0.13 | 35 | 1005.5 |
| 20260504234539 | 19 | 23 | 11.3 | 19.3 | 0.00 | 0.13 | 0.13 | 38 | 1005.7 |
| 20260504233518 | 18 | 68 | 9.7 | 20.9 | 0.00 | 0.13 | 0.13 | 41 | 1005.5 |
| 20260504232519 | 17 | 23 | 9.7 | 19.3 | 0.05 | 0.13 | 0.13 | 44 | 1005.6 |
| 20260504231519 | 17 | 23 | 12.9 | 29.0 | 0.08 | 0.13 | 0.13 | 47 | 1005.2 |
| 20260504230518 | 16 | 68 | 9.7 | 22.5 | 0.13 | 0.13 | 0.13 | 52 | 1004.9 |
| 20260504225518 | 15 | 68 | 4.8 | 12.9 | 0.13 | 0.13 | 0.13 | 61 | 1004.8 |
| 20260504224518 | 15 | 68 | 3.2 | 6.4 | 0.13 | 0.13 | 0.13 | 66 | 1005.0 |
| 20260504223518 | 15 | 68 | 3.2 | 11.3 | 0.13 | 0.13 | 0.13 | 65 | 1005.0 |
| 20260504222518 | 15 | 0.0 | 6.4 | 0.08 | 0.08 | 0.08 | 60 | 1005.1 | |
| 20260504221559 | 15 | 0.0 | 6.4 | 0.05 | 0.05 | 0.05 | 57 | 1005.8 | |
| 20260504220518 | 16 | 225 | 3.2 | 11.3 | 0.00 | 0.00 | 0.00 | 51 | 1006.8 |
| 20260504215518 | 19 | 68 | 1.6 | 4.8 | 0.00 | 0.00 | 0.00 | 38 | 1006.5 |
| 20260504214539 | 20 | 90 | 3.2 | 8.0 | 0.00 | 0.00 | 0.00 | 27 | 1005.9 |
| 20260504213518 | 20 | 270 | 1.6 | 6.4 | 0.00 | 0.00 | 0.00 | 28 | 1005.5 |
| 20260504212518 | 21 | 0.0 | 3.2 | 0.00 | 0.00 | 0.00 | 28 | 1005.8 | |
| 20260504211518 | 21 | 293 | 1.6 | 6.4 | 0.00 | 0.00 | 0.00 | 27 | 1005.9 |
| 20260504210517 | 21 | 0.0 | 0.0 | 0.00 | 0.00 | 0.00 | 28 | 1006.4 | |
| 20260504205519 | 22 | 0.0 | 4.8 | 0.00 | 0.00 | 0.00 | 26 | 1006.4 | |
| 20260504204517 | 22 | 270 | 3.2 | 9.7 | 0.00 | 0.00 | 0.00 | 25 | 1006.5 |
| 20260504203559 | 22 | 0.0 | 3.2 | 0.00 | 0.00 | 0.00 | 25 | 1006.6 | |
| 20260504202517 | 22 | 270 | 1.6 | 6.4 | 0.00 | 0.00 | 0.00 | 24 | 1006.6 |
| 20260504201518 | 23 | 270 | 1.6 | 6.4 | 0.00 | 0.00 | 0.00 | 23 | 1006.7 |
| 20260504200520 | 23 | 270 | 3.2 | 9.7 | 0.00 | 0.00 | 0.00 | 23 | 1006.7 |
| 20260504195518 | 23 | 270 | 1.6 | 6.4 | 0.00 | 0.00 | 0.00 | 23 | 1007.2 |
| 20260504194518 | 23 | 0.0 | 3.2 | 0.00 | 0.00 | 0.00 | 23 | 1007.1 | |
| 20260504193518 | 24 | 270 | 1.6 | 6.4 | 0.00 | 0.00 | 0.00 | 21 | 1007.2 |
| 20260504192517 | 24 | 270 | 3.2 | 9.7 | 0.00 | 0.00 | 0.00 | 23 | 1007.5 |
| 20260504191518 | 24 | 270 | 3.2 | 9.7 | 0.00 | 0.00 | 0.00 | 23 | 1007.5 |
| 20260504190518 | 26 | 293 | 3.2 | 12.9 | 0.00 | 0.00 | 0.00 | 21 | 1008.2 |
| 20260504185518 | 25 | 0.0 | 4.8 | 0.00 | 0.00 | 0.00 | 22 | 1008.4 | |
| 20260504184520 | 25 | 0.0 | 4.8 | 0.00 | 0.00 | 0.00 | 21 | 1008.1 | |
| 20260504183519 | 24 | 225 | 4.8 | 11.3 | 0.00 | 0.00 | 0.00 | 23 | 1008.2 |
| 20260504182519 | 23 | 225 | 3.2 | 4.8 | 0.00 | 0.00 | 0.00 | 25 | 1008.1 |
| 20260504181519 | 23 | 270 | 1.6 | 12.9 | 0.00 | 0.00 | 0.00 | 24 | 1008.1 |
| 20260504180521 | 23 | 270 | 4.8 | 11.3 | 0.00 | 0.00 | 0.00 | 24 | 1008.3 |
| 20260504175519 | 23 | 270 | 4.8 | 12.9 | 0.00 | 0.00 | 0.00 | 25 | 1008.4 |
| 20260504174520 | 22 | 158 | 1.6 | 8.0 | 0.00 | 0.00 | 0.00 | 27 | 1008.4 |
| 20260504173519 | 22 | 90 | 3.2 | 9.7 | 0.00 | 0.00 | 0.00 | 27 | 1008.6 |
| 20260504172520 | 21 | 225 | 1.6 | 6.4 | 0.00 | 0.00 | 0.00 | 29 | 1008.7 |
| 20260504171519 | 21 | 0.0 | 0.0 | 0.00 | 0.00 | 0.00 | 32 | 1008.5 | |
| 20260504170519 | 21 | 225 | 1.6 | 4.8 | 0.00 | 0.00 | 0.00 | 31 | 1008.6 |
| 20260504150519 | 16 | 0.0 | 3.2 | 0.00 | 0.00 | 0.00 | 37 | 1008.5 | |
| 20260504140519 | 12 | 0.0 | 0.0 | 0.00 | 0.00 | 0.00 | 52 | 1008.4 | |
| 20260504130519 | 10 | 68 | 1.6 | 4.8 | 0.00 | 0.00 | 0.00 | 49 | 1008.6 |
| 20260504110518 | 12 | 0.0 | 3.2 | 0.00 | 0.00 | 0.00 | 37 | 1009.9 | |
| 20260504100518 | 12 | 0.0 | 0.0 | 0.00 | 0.00 | 0.00 | 37 | 1009.8 | |
| 20260504081518 | 11 | 0.0 | 4.8 | 0.00 | 0.00 | 0.00 | 37 | 1009.9 | |
| 20260504080518 | 12 | 0.0 | 0.0 | 0.00 | 0.00 | 0.00 | 40 | 1009.8 |